Regional Weather Roundup
Issued by NWS

Home | Current Version | Previous Version | Graphics & Text | Print | Product List | Glossary Off
Versions: 1 2 3 4 5 6 7 8 9 10 11 12 13 14 15 16 17 18 19 20 21 22 23 24 25 26 27 28 29 30 31 32 33 34 35 36 37 38 39 40 41 42 43 44 45 46 47 48 49 50

751
ASUS43 KMKX 170421
RWRWI

WISCONSIN REGIONAL WEATHER ROUNDUP
NATIONAL WEATHER SERVICE MILWAUKEE/SULLIVAN WI
1000 PM CST MON JAN 16 2017

NOTE: "FAIR" INDICATES FEW OR NO CLOUDS BELOW 12,000 FEET WITH NO
SIGNIFICANT WEATHER AND/OR OBSTRUCTIONS TO VISIBILITY.

WIZ001-002-006>008-014>016-023>028-170500-
NORTHWEST WISCONSIN

CITY           SKY/WX    TMP DP  RH WIND       PRES   REMARKS
SUPERIOR ARPT  CLOUDY    19  16  87 CALM      30.02F
ASHLAND        CLOUDY    25  20  81 N3        30.02F
HAYWARD        CLOUDY    27  20  75 CALM      29.99F
SIREN          CLOUDY    25  20  83 CALM      30.00F
CUMBERLAND     CLOUDY    28  19  69 N3        29.97F
RICE LAKE      MIX PCPN  28  23  79 CALM      29.99F
CHETEK         MIX PCPN  30  28  90 CALM      29.97F
LADYSMITH      CLOUDY    32  24  71 NE5       29.99F WCI  28
EAU CLAIRE     FRZ RAIN  32  31  96 NE5       29.96F FOG     WCI  27
MENOMONIE      RAIN      33  32  97 CALM      29.97F
NEW RICHMOND   RAIN      31  30  95 CALM      29.97F
OSCEOLA        CLOUDY    29  22  73 CALM      30.01F
$$

WIZ003>005-009-010-017-018-170500-
NORTH CENTRAL WISCONSIN

CITY           SKY/WX    TMP DP  RH WIND       PRES   REMARKS
MANITOWISH WTR MOCLDY    20  19  93 SE3       29.98F
ARBOR VITAE    CLOUDY    29  23  80 CALM      29.99F
WOODRUFF       CLOUDY    29  23  80 CALM      29.99F
RHINELANDER    CLOUDY    26  21  81 CALM      29.98F
EAGLE RIVER    CLOUDY    23  19  86 CALM      29.99F
LAND O LAKES   CLOUDY    22  19  90 CALM      30.00F
PHILLIPS       CLOUDY    27  20  75 NE3       29.97F
TOMAHAWK       CLOUDY    29  22  75 CALM      29.98F
MEDFORD        MIX PCPN  31  30  96 E5        29.95F WCI  27
MERRILL        MIX PCPN  31  27  88 E3          N/A
$$

WIZ029-030-035-036-043>047-170500-
CENTRAL WISCONSIN

CITY           SKY/WX    TMP DP  RH WIND       PRES   REMARKS
WAUSAU         FRZ RAIN  30  28  92 E7        29.97F FOG     WCI  23
MOSINEE        FRZ RAIN  32  32 100 E8        29.98F WCI  25
MARSHFIELD     FRZ RAIN  32  31  96 E8        29.94F FOG     WCI  25
STEVENS POINT  MIX PCPN  31  31 100 E5        29.97F WCI  26
WAUPACA        RAIN      34  32  92 CALM      29.98F
WAUTOMA        MIX PCPN  33  32  96 E10       29.96F FOG     WCI  25
WISC RAPIDS    MIX PCPN  33  32  96 E6        29.97F FOG     WCI  28
CAMP DOUGLAS   LGT RAIN  33  32  97 E5        29.93F FOG     WCI  28
$$

WIZ011>013-019>022-031-037>040-048>050-170500-
NORTHEAST WISCONSIN

CITY           SKY/WX    TMP DP  RH WIND       PRES   REMARKS
ANTIGO         MIX PCPN  28  23  81 E6        29.98F WCI  22
SHAWANO        LGT RAIN  33  31  92 NE7       30.01F WCI  27
OCONTO         CLOUDY    30  28  92 NE5       30.04F WCI  26
STURGEON BAY   MIX PCPN  34  30  86 E7        30.04F FOG     WCI  28
GREEN BAY      FRZ RAIN  35  34  96 E8        30.01F FOG     WCI  29
MANITOWOC      MIX PCPN  35  33  92 E9        30.00F WCI  28
APPLETON       DRIZZLE   32  32 100 E6        29.97F WCI  26
CLINTONVILLE   MIX PCPN  32  32 100 E5        29.99F WCI  27
OSHKOSH        MIX PCPN  33  32  96 E8        29.95F WCI  26
$$

WIZ032>034-041-042-053>061-170500-
SOUTHWEST WISCONSIN

CITY           SKY/WX    TMP DP  RH WIND       PRES   REMARKS
LA CROSSE      MIX PCPN  37  32  82 CALM      29.93F
SPARTA         MIX PCPN  32  32  99 E6        29.94F WCI  27
VIROQUA        CLOUDY    32  32 100 CALM      29.89F
BOSCOBEL       CLOUDY    34  33  96 NE5       29.91F FOG     WCI  30
PRAIRIE DU CHI CLOUDY    33  32  96 CALM      29.90S FOG
PLATTEVILLE    CLOUDY    34  34 100 E10       29.87F WCI  26
$$

WIZ056-057-062-063-064-067-068-170500-
SOUTH CENTRAL WISCONSIN

CITY           SKY/WX    TMP DP  RH WIND       PRES   REMARKS
REEDSBURG      DRIZZLE   32  32 100 E3        29.92F
BARABOO/DELLS  DRZL/FOG  32  32  99 E7        29.92S VSB 1   WCI  26
LONE ROCK      CLOUDY    34  32  92 NE6       29.91F FOG     WCI  29
MINERAL POINT  CLOUDY    34  34 100 E12       29.86F FOG     WCI  25
MADISON        LGT RAIN  34  33  96 E6        29.91F FOG     WCI  29
MIDDLETON      CLOUDY    35  35 100 E3        29.91F
WATERTOWN      CLOUDY    34  34 100 E6        29.92R WCI  29
MONROE         SNOW      34  34 100 NE6       29.88F VSB 1/4 WCI  29
JANESVILLE     CLOUDY    36  36 100 CALM      29.89F FOG
$$

WIZ051-052-058>065-066-070>072-170500-
SOUTHEAST WISCONSIN

CITY           SKY/WX    TMP DP  RH WIND       PRES   REMARKS
MILWAUKEE      CLOUDY    37  35  92 E13G20    29.94F FOG     WCI  29
WAUKESHA       CLOUDY    34  32  93 E7        29.94R FOG     WCI  28
MILWAUKEE/TIMM CLOUDY    34  32  93 E8        29.94F FOG     WCI  27
RACINE         CLOUDY    36  35  96 E10       29.93F FOG     WCI  28
KENOSHA        FOG       36  35  96 E13       29.92F VSB 1/4 WCI  27
FOND DU LAC    LGT RAIN  35  31  85 E7        29.95F WCI  29
SHEBOYGAN      LGT RAIN  35  33  92 E10       29.97F FOG     WCI  27
WEST BEND      DRIZZLE   34  34 100 E8        29.94F WCI  27
JUNEAU         CLOUDY    33  32  96 E8        29.94S WCI  27
$$

LSZ147-162-170500-
LAKE SUPERIOR

STATION/POSITION TIME  TEMP    WIND        PRES    WAVE
                       AIR SEA DIR/SP/G            HT/PER
                 (UTC) (F)     (DEG/KT/KT) (MB)    (FT/S)
DEVILS ISLAND    0400   31      70/  4/  5 1017.7F
PORT WING        0330   21     160/  3/  4 1017.3S
SAXON HARBOR     0340   25      CALM  /  2 1016.6F
$$

LMZ867-665-643>646-170500-
LAKE MICHIGAN

STATION/POSITION TIME  TEMP    WIND        PRES    WAVE
                       AIR SEA DIR/SP/G            HT/PER
                 (UTC) (F)     (DEG/KT/KT) (MB)    (FT/S)
NORTHPORT PIER   0402   30        CALM     1017.9
SISTER BAY       0320   28        CALM       N/A
ALGOMA LAKESHORE 0323          100/ 11/ 12   N/A
KEWAUNEE LAKESHO 0354   35      90/  7/  9 1016.3F
SHEBOYGAN LAKESH 0400   35      90/ 16/ 17 1015.4F
PORT WASHINGTON  0400   36      90/ 11/ 18 1015.2
MILWAUKEE LAKESH 0400   36     110/ 15/ 17   N/A
KENOSHA   LAKESH 0400   35      90/  9/ 11 1013.5
$$

TC  - TEMPERATURE IN CELSIUS
VSB - VISIBILITY IN STATUTE MILES
WCI - WIND CHILL INDEX
HX  - HEAT INDEX





USA.gov is the U.S. government's official web portal to all federal, state and local government web resources and services.